Flag for U.S.A. Weather past 2 weeks in Temple, Texas, U.S.A.

Now
61 °F

Low clouds.


Feels Like: 61 °F
Forecast: 44 / 65 °F
Wind: 12 mph from South

Location: Fort Hood AAF Airport

Current Time: Feb 1, 2015 at 2:52:39 AM

Latest Report: Feb 1, 2015 at 1:58 AM


Visibility: 10 mi

Pressure: 29.87 "Hg

Humidity: 96%

Dew point: 60 °F

Location of TempleLocation

Historic Weather in Temple — Graph

°F

Temple temperature yesterday

Maximum temperature yesterday: 61 °F (at 11:58 PM)
Minimum temperature yesterday: 45 °F (at 6:58 AM)
Average temperature yesterday: 51 °F

Past Weeks' High & Low Weather Summary

 TemperatureHumidityPressure
High82 °F (Jan 28, 2:58 PM)100% (Jan 22, 1:03 AM)30.46 "Hg (Jan 22, 1:03 AM)
Low33 °F (Jan 24, 5:58 AM)14% (Jan 18, 3:58 PM)29.85 "Hg (Jan 20, 1:58 PM)
Average53 °F60%30.13 "Hg
* Reported Jan 17 1:58 AM — Feb 1 1:58 AM, Temple, Weather by CustomWeather, © 2014

Note: Actual official high and low records may vary slightly from our data, if they occured in-between our weather recording intervals... More about our weather records

Advertising

Temple weather history for previous 24 hours

 ConditionsComfort  
Time TempWeatherWind HumidityBarometerVisibility
1:58 AM
Feb 1
61 °FLow clouds.12 mph96%29.87 "Hg10 mi
12:58 AM61 °FLow clouds.12 mph95%29.88 "Hg10 mi
11:58 PM
Jan 31
61 °FLow clouds.12 mph96%29.88 "Hg10 mi
11:03 PM59 °FLight rain. Mostly cloudy.13 mph100%29.90 "Hg8 mi
10:03 PM57 °FLight rain. Fog.8 mph100%29.91 "Hg4 mi
9:58 PM57 °FLight rain. Fog.8 mph99%29.90 "Hg4 mi
9:03 PM57 °FLight rain. Fog.5 mph94%29.92 "Hg3 mi
8:58 PM57 °FLight rain. Fog.7 mph100%29.91 "Hg2 mi
7:58 PM56 °FFog.7 mph98%29.93 "Hg6 mi
6:58 PM54 °FFog.18 mph99%29.87 "Hg2 mi
5:58 PM53 °FLight rain. Fog.10 mph99%29.94 "Hg2 mi
5:03 PM52 °FLight rain. Fog.6 mph100%29.95 "Hg2 mi
4:58 PM52 °FLight rain. Fog.6 mph97%29.95 "Hg3 mi
3:58 PM51 °FLight rain. Fog.5 mph96%29.97 "Hg2 mi
3:03 PM50 °FLight rain. Fog.3 mph94%29.99 "Hg3 mi
1:58 PM49 °FLight rain. Fog.6 mph88%30.02 "Hg3 mi
12:58 PM48 °FMore clouds than sun.12 mph84%30.05 "Hg4 mi
12:03 PM46 °FOvercast.12 mph82%30.10 "Hg5 mi
12:00 PM46 °FLight rain. Low clouds.10 mph82%30.10 "Hg5 mi
10:58 AM47 °FOvercast.9 mph83%30.13 "Hg5 mi
9:58 AM46 °FLow clouds.12 mph76%30.15 "Hg5 mi
8:58 AM46 °FOvercast.10 mph68%30.17 "Hg6 mi
7:58 AM46 °FOvercast.8 mph66%30.16 "Hg7 mi
6:58 AM45 °FOvercast.8 mph70%30.16 "Hg9 mi
5:58 AM46 °FOvercast.8 mph66%30.16 "Hg9 mi
4:58 AM46 °FPassing clouds.10 mph64%30.17 "Hg9 mi
3:58 AM46 °FPassing clouds.8 mph65%30.19 "Hg9 mi
2:58 AM46 °FPassing clouds.9 mph66%30.20 "Hg10 mi
Weather by CustomWeather, © 2014

See weather overviewHow to use our weather pages